FGYEH LFCH-LFDA

Flight info

Callsign FGYEH
Flight time 1h 3m
Altitude 2500
Route DCT LFCZ DCT
Aircraft DR40/L-S/C

Departure

Time 2026-04-18 21:36
Airport Aérodrome d'Arcachon-La Teste-de-Buch (LFCH)

Arrival

Time 2026-04-18 22:39
Airport Aire-sur-l'Adour Airfield (LFDA)
Time Latitude Longitude Altitude Speed Heading
2026-04-18 21:27 44.59729 -1.11479 29 ft 0 kts 294°
2026-04-18 21:28 44.59730 -1.11482 57 ft 2 kts 307°
2026-04-18 21:28 44.59726 -1.11496 53 ft 0 kts 174°
2026-04-18 21:29 44.59716 -1.11493 54 ft 5 kts 163°
2026-04-18 21:29 44.59654 -1.11463 57 ft 8 kts 156°
2026-04-18 21:29 44.59656 -1.11393 55 ft 10 kts 72°
2026-04-18 21:29 44.59683 -1.11271 56 ft 15 kts 72°
2026-04-18 21:30 44.59717 -1.11116 54 ft 17 kts 72°
2026-04-18 21:30 44.59752 -1.10961 56 ft 16 kts 70°
2026-04-18 21:30 44.59784 -1.10824 56 ft 14 kts 73°
2026-04-18 21:30 44.59810 -1.10703 56 ft 12 kts 72°
2026-04-18 21:31 44.59825 -1.10620 56 ft 0 kts 118°
2026-04-18 21:34 44.59820 -1.10609 56 ft 6 kts 129°
2026-04-18 21:34 44.59771 -1.10598 55 ft 7 kts 246°
2026-04-18 21:35 44.59745 -1.10702 54 ft 26 kts 252°
2026-04-18 21:35 44.59636 -1.11184 76 ft 72 kts 256°
2026-04-18 21:35 44.59500 -1.11877 323 ft 73 kts 259°
2026-04-18 21:35 44.59373 -1.12602 536 ft 83 kts 260°
2026-04-18 21:36 44.59252 -1.13421 776 ft 84 kts 263°
2026-04-18 21:36 44.59135 -1.14249 990 ft 88 kts 262°
2026-04-18 21:36 44.59000 -1.15076 1221 ft 87 kts 265°
2026-04-18 21:36 44.58837 -1.15918 1434 ft 92 kts 260°
2026-04-18 21:37 44.58646 -1.16745 1682 ft 85 kts 261°
2026-04-18 21:37 44.58420 -1.17527 1914 ft 88 kts 254°
2026-04-18 21:37 44.58183 -1.18332 2123 ft 89 kts 256°
2026-04-18 21:37 44.57951 -1.19132 2357 ft 90 kts 250°
2026-04-18 21:38 44.57716 -1.19950 2494 ft 91 kts 259°
2026-04-18 21:38 44.57553 -1.20857 2520 ft 103 kts 262°
2026-04-18 21:38 44.57440 -1.21863 2528 ft 100 kts 273°
2026-04-18 21:38 44.57416 -1.22840 2518 ft 102 kts 271°
2026-04-18 21:39 44.57143 -1.23728 2562 ft 105 kts 228°
2026-04-18 21:39 44.56515 -1.24289 2566 ft 108 kts 206°
2026-04-18 21:39 44.55815 -1.24677 2550 ft 108 kts 202°
2026-04-18 21:39 44.55152 -1.25125 8443 ft 101 kts 211°
2026-04-18 21:40 44.54789 -1.25397 8306 ft 102 kts 213°
2026-04-18 21:44 44.54670 -1.25243 2743 ft 0 kts 213°
2026-04-18 21:44 44.54429 -1.25459 2179 ft 90 kts 213°
2026-04-18 21:45 44.53876 -1.25685 2456 ft 78 kts 186°
2026-04-18 21:45 44.53249 -1.25676 2445 ft 99 kts 178°
2026-04-18 21:45 44.52552 -1.25638 2475 ft 102 kts 168°
2026-04-18 21:45 44.51722 -1.25433 2422 ft 111 kts 168°
2026-04-18 21:46 44.51551 -1.25381 2416 ft 110 kts 162°
2026-04-18 21:47 44.50837 -1.25162 2402 ft 106 kts 178°
2026-04-18 21:47 44.50093 -1.25105 2389 ft 108 kts 177°
2026-04-18 21:47 44.49346 -1.25032 2403 ft 108 kts 177°
2026-04-18 21:47 44.48610 -1.25009 2434 ft 109 kts 181°
2026-04-18 21:48 44.47844 -1.25048 2461 ft 111 kts 184°
2026-04-18 21:48 44.47078 -1.25167 2484 ft 111 kts 189°
2026-04-18 21:48 44.46321 -1.25341 2504 ft 111 kts 190°
2026-04-18 21:48 44.45546 -1.25502 2496 ft 113 kts 189°
2026-04-18 21:49 44.44768 -1.25710 2444 ft 115 kts 195°
2026-04-18 21:49 44.44002 -1.25975 2472 ft 110 kts 195°
2026-04-18 21:49 44.43242 -1.26032 2380 ft 113 kts 175°
2026-04-18 21:49 44.42490 -1.26266 2366 ft 111 kts 191°
2026-04-18 21:50 44.41710 -1.26234 2279 ft 115 kts 168°
2026-04-18 21:50 44.40944 -1.26271 2317 ft 108 kts 189°
2026-04-18 21:50 44.40214 -1.26476 2378 ft 105 kts 194°
2026-04-18 21:50 44.39515 -1.26625 2568 ft 100 kts 183°
2026-04-18 21:51 44.39148 -1.26651 2635 ft 102 kts 183°
2026-04-18 21:51 44.38757 -1.26645 2674 ft 104 kts 174°
2026-04-18 21:51 44.38049 -1.26710 2838 ft 102 kts 186°
2026-04-18 21:51 44.37326 -1.26826 2936 ft 106 kts 188°
2026-04-18 21:52 44.36611 -1.26948 3098 ft 102 kts 186°
2026-04-18 21:52 44.35904 -1.27029 3211 ft 102 kts 184°
2026-04-18 21:52 44.35193 -1.27102 3324 ft 102 kts 185°
2026-04-18 21:52 44.34490 -1.27191 3443 ft 101 kts 185°
2026-04-18 21:53 44.33801 -1.27299 3546 ft 101 kts 188°
2026-04-18 21:53 44.33397 -1.27388 3601 ft 101 kts 190°
2026-04-18 21:53 44.32794 -1.27529 3701 ft 99 kts 190°
2026-04-18 21:53 44.32122 -1.27715 3798 ft 98 kts 192°
2026-04-18 21:54 44.31453 -1.27897 3901 ft 97 kts 190°
2026-04-18 21:54 44.30793 -1.28069 4026 ft 94 kts 191°
2026-04-18 21:54 44.30164 -1.28252 4126 ft 95 kts 193°
2026-04-18 21:54 44.29521 -1.28548 4198 ft 97 kts 204°
2026-04-18 21:55 44.28972 -1.29076 4285 ft 97 kts 218°
2026-04-18 21:55 44.28404 -1.29543 4385 ft 93 kts 198°
2026-04-18 21:55 44.27780 -1.29747 4471 ft 92 kts 188°
2026-04-18 21:55 44.27143 -1.29855 4530 ft 93 kts 187°
2026-04-18 21:56 44.26517 -1.29920 4637 ft 91 kts 174°
2026-04-18 21:56 44.25964 -1.29528 4752 ft 91 kts 145°
2026-04-18 21:56 44.25460 -1.28985 4864 ft 90 kts 146°
2026-04-18 21:56 44.24971 -1.28469 4986 ft 88 kts 147°
2026-04-18 21:57 44.24484 -1.27948 5092 ft 88 kts 145°
2026-04-18 21:57 44.24005 -1.27419 5182 ft 89 kts 147°
2026-04-18 21:57 44.23496 -1.26935 5293 ft 87 kts 148°
2026-04-18 21:57 44.23039 -1.26364 5365 ft 91 kts 138°
2026-04-18 21:58 44.22610 -1.25720 5450 ft 91 kts 138°
2026-04-18 21:58 44.22163 -1.25056 5476 ft 97 kts 138°
2026-04-18 21:58 44.21703 -1.24358 5492 ft 98 kts 136°
2026-04-18 21:58 44.21241 -1.23654 5500 ft 99 kts 136°
2026-04-18 21:59 44.20772 -1.22951 5524 ft 99 kts 136°
2026-04-18 21:59 44.20314 -1.22224 5531 ft 101 kts 132°
2026-04-18 21:59 44.19851 -1.21484 5542 ft 98 kts 147°
2026-04-18 21:59 44.19252 -1.21077 5579 ft 97 kts 159°
2026-04-18 22:00 44.18610 -1.20799 5593 ft 97 kts 166°
2026-04-18 22:00 44.17964 -1.20483 5586 ft 99 kts 157°
2026-04-18 22:00 44.17357 -1.20020 5619 ft 97 kts 154°
2026-04-18 22:00 44.16763 -1.19554 5615 ft 99 kts 149°
2026-04-18 22:01 44.16202 -1.19028 5635 ft 98 kts 149°
2026-04-18 22:01 44.15641 -1.18486 5635 ft 99 kts 147°
2026-04-18 22:01 44.15078 -1.17909 5616 ft 101 kts 145°
2026-04-18 22:01 44.14541 -1.17275 5624 ft 100 kts 139°
2026-04-18 22:02 44.14125 -1.16490 5631 ft 101 kts 126°
2026-04-18 22:02 44.14053 -1.16335 5642 ft 101 kts 127°
2026-04-18 22:02 44.13687 -1.15528 5659 ft 100 kts 124°
2026-04-18 22:03 44.13351 -1.14665 5643 ft 103 kts 122°
2026-04-18 22:03 44.13006 -1.13789 5643 ft 103 kts 122°
2026-04-18 22:03 44.12660 -1.12917 5645 ft 104 kts 123°
2026-04-18 22:03 44.12337 -1.12123 5636 ft 104 kts 123°
2026-04-18 22:04 44.11975 -1.11250 5634 ft 104 kts 122°
2026-04-18 22:04 44.11632 -1.10359 5607 ft 104 kts 120°
2026-04-18 22:04 44.11279 -1.09484 5550 ft 103 kts 127°
2026-04-18 22:04 44.10864 -1.08678 5510 ft 103 kts 129°
2026-04-18 22:05 44.10433 -1.07877 5502 ft 103 kts 129°
2026-04-18 22:05 44.09995 -1.07083 5483 ft 104 kts 131°
2026-04-18 22:05 44.09552 -1.06295 5461 ft 102 kts 131°
2026-04-18 22:05 44.09101 -1.05528 5435 ft 103 kts 132°
2026-04-18 22:06 44.08663 -1.04744 5407 ft 103 kts 130°
2026-04-18 22:06 44.08260 -1.03997 5368 ft 104 kts 131°
2026-04-18 22:06 44.07810 -1.03235 5334 ft 103 kts 133°
2026-04-18 22:06 44.07341 -1.02467 5308 ft 102 kts 133°
2026-04-18 22:07 44.06896 -1.01720 5301 ft 101 kts 133°
2026-04-18 22:07 44.06445 -1.00967 5270 ft 102 kts 133°
2026-04-18 22:07 44.05990 -1.00217 5261 ft 100 kts 133°
2026-04-18 22:07 44.05561 -0.99499 5337 ft 93 kts 131°
2026-04-18 22:08 44.05175 -0.98819 5473 ft 88 kts 131°
2026-04-18 22:08 44.04780 -0.98119 5485 ft 96 kts 132°
2026-04-18 22:08 44.04350 -0.97386 5494 ft 99 kts 132°
2026-04-18 22:08 44.03907 -0.96650 5519 ft 99 kts 134°
2026-04-18 22:09 44.03458 -0.95923 5548 ft 99 kts 133°
2026-04-18 22:09 44.03036 -0.95154 5557 ft 101 kts 130°
2026-04-18 22:09 44.02605 -0.94367 5542 ft 104 kts 129°
2026-04-18 22:09 44.02181 -0.93534 5477 ft 107 kts 128°
2026-04-18 22:10 44.01754 -0.92718 5519 ft 101 kts 129°
2026-04-18 22:10 44.01336 -0.91929 5512 ft 103 kts 128°
2026-04-18 22:10 44.00929 -0.91139 5537 ft 100 kts 127°
2026-04-18 22:10 44.00521 -0.90362 5552 ft 99 kts 140°
2026-04-18 22:11 43.99910 -0.89923 5555 ft 100 kts 158°
2026-04-18 22:11 43.99429 -0.89649 5550 ft 101 kts 159°
2026-04-18 22:11 43.98783 -0.89277 5565 ft 100 kts 157°
2026-04-18 22:11 43.98149 -0.88862 5551 ft 101 kts 154°
2026-04-18 22:12 43.96891 -0.88013 5565 ft 100 kts 157°
2026-04-18 22:12 43.96254 -0.87627 5562 ft 100 kts 156°
2026-04-18 22:12 43.95621 -0.87212 5557 ft 101 kts 156°
2026-04-18 22:13 43.94974 -0.86833 5555 ft 101 kts 158°
2026-04-18 22:13 43.94328 -0.86457 5563 ft 100 kts 160°
2026-04-18 22:13 43.93666 -0.86138 5554 ft 101 kts 162°
2026-04-18 22:13 43.93002 -0.85826 5564 ft 100 kts 161°
2026-04-18 22:14 43.92319 -0.85587 5540 ft 102 kts 169°
2026-04-18 22:14 43.91624 -0.85403 5541 ft 101 kts 170°
2026-04-18 22:14 43.90941 -0.85254 5546 ft 100 kts 171°
2026-04-18 22:14 43.90240 -0.85095 5541 ft 101 kts 169°
2026-04-18 22:15 43.89563 -0.84906 5540 ft 101 kts 169°
2026-04-18 22:15 43.88868 -0.84744 5536 ft 101 kts 172°
2026-04-18 22:15 43.88170 -0.84647 5540 ft 101 kts 176°
2026-04-18 22:15 43.87464 -0.84615 5526 ft 102 kts 178°
2026-04-18 22:16 43.86762 -0.84587 5538 ft 101 kts 178°
2026-04-18 22:16 43.86060 -0.84570 5526 ft 101 kts 177°
2026-04-18 22:16 43.85378 -0.84299 5474 ft 104 kts 153°
2026-04-18 22:16 43.84847 -0.83644 5454 ft 103 kts 126°
2026-04-18 22:17 43.84475 -0.82806 5476 ft 101 kts 124°
2026-04-18 22:17 43.84087 -0.81994 5468 ft 102 kts 127°
2026-04-18 22:17 43.83714 -0.81155 5462 ft 102 kts 121°
2026-04-18 22:17 43.83389 -0.80291 5456 ft 101 kts 120°
2026-04-18 22:18 43.83059 -0.79423 5431 ft 102 kts 120°
2026-04-18 22:18 43.82754 -0.78541 5420 ft 101 kts 116°
2026-04-18 22:18 43.82476 -0.77652 5408 ft 101 kts 116°
2026-04-18 22:18 43.82181 -0.76767 5386 ft 101 kts 118°
2026-04-18 22:19 43.81865 -0.75900 5364 ft 101 kts 120°
2026-04-18 22:19 43.81573 -0.75017 5357 ft 99 kts 116°
2026-04-18 22:19 43.81320 -0.74140 5360 ft 100 kts 113°
2026-04-18 22:19 43.81096 -0.73314 5313 ft 102 kts 115°
2026-04-18 22:20 43.80812 -0.72452 5372 ft 93 kts 120°
2026-04-18 22:20 43.80512 -0.71664 5408 ft 94 kts 120°
2026-04-18 22:20 43.80210 -0.70860 5414 ft 96 kts 118°
2026-04-18 22:20 43.79952 -0.70020 5466 ft 94 kts 113°
2026-04-18 22:21 43.79738 -0.69158 5470 ft 96 kts 112°
2026-04-18 22:21 43.79504 -0.68285 5482 ft 97 kts 115°
2026-04-18 22:21 43.79250 -0.67438 5537 ft 95 kts 116°
2026-04-18 22:21 43.79005 -0.66570 5530 ft 98 kts 111°
2026-04-18 22:22 43.78819 -0.65670 5570 ft 97 kts 106°
2026-04-18 22:22 43.78629 -0.64777 5577 ft 97 kts 116°
2026-04-18 22:22 43.78186 -0.64097 5623 ft 94 kts 140°
2026-04-18 22:22 43.77708 -0.63474 5642 ft 95 kts 136°
2026-04-18 22:23 43.77262 -0.62814 5685 ft 94 kts 133°
2026-04-18 22:23 43.76828 -0.62118 5669 ft 98 kts 133°
2026-04-18 22:23 43.76391 -0.61397 5682 ft 98 kts 128°
2026-04-18 22:23 43.76035 -0.60594 5710 ft 97 kts 118°
2026-04-18 22:24 43.75792 -0.59735 5735 ft 98 kts 109°
2026-04-18 22:24 43.75641 -0.58798 5745 ft 98 kts 103°
2026-04-18 22:24 43.75543 -0.57861 5741 ft 101 kts 98°
2026-04-18 22:24 43.75505 -0.56873 5654 ft 105 kts 91°
2026-04-18 22:25 43.75592 -0.55874 5579 ft 104 kts 92°
2026-04-18 22:25 43.75618 -0.54861 5462 ft 107 kts 92°
2026-04-18 22:25 43.75639 -0.53830 5344 ft 107 kts 92°
2026-04-18 22:25 43.75651 -0.52801 5225 ft 107 kts 92°
2026-04-18 22:26 43.75665 -0.51774 5100 ft 106 kts 92°
2026-04-18 22:26 43.75665 -0.50760 4995 ft 105 kts 94°
2026-04-18 22:26 43.75652 -0.49749 4879 ft 104 kts 95°
2026-04-18 22:26 43.75622 -0.48746 4763 ft 104 kts 97°
2026-04-18 22:27 43.75568 -0.47748 4647 ft 104 kts 99°
2026-04-18 22:27 43.75482 -0.46758 4544 ft 103 kts 101°
2026-04-18 22:27 43.75364 -0.45784 4430 ft 105 kts 103°
2026-04-18 22:27 43.75226 -0.44807 4346 ft 102 kts 104°
2026-04-18 22:28 43.75081 -0.43853 4247 ft 103 kts 104°
2026-04-18 22:28 43.74937 -0.42878 4147 ft 102 kts 104°
2026-04-18 22:28 43.74804 -0.41912 4043 ft 102 kts 103°
2026-04-18 22:28 43.74558 -0.40987 3925 ft 104 kts 116°
2026-04-18 22:29 43.74287 -0.40067 3826 ft 104 kts 103°
2026-04-18 22:29 43.74215 -0.39063 3677 ft 103 kts 96°
2026-04-18 22:29 43.74151 -0.38085 3516 ft 99 kts 98°
2026-04-18 22:29 43.74135 -0.37141 3411 ft 101 kts 72°
2026-04-18 22:30 43.74500 -0.36375 3230 ft 88 kts 47°
2026-04-18 22:30 43.74984 -0.36532 3068 ft 83 kts 283°
2026-04-18 22:30 43.74640 -0.36850 2849 ft 79 kts 139°
2026-04-18 22:30 43.74311 -0.36086 2221 ft 107 kts 109°
2026-04-18 22:31 43.73925 -0.35170 1679 ft 120 kts 137°
2026-04-18 22:31 43.73337 -0.34322 1487 ft 112 kts 135°
2026-04-18 22:31 43.72834 -0.33592 1382 ft 98 kts 135°
2026-04-18 22:31 43.72381 -0.32878 1385 ft 103 kts 131°
2026-04-18 22:32 43.72089 -0.32346 1456 ft 106 kts 128°
2026-04-18 22:32 43.71643 -0.31499 1512 ft 113 kts 128°
2026-04-18 22:32 43.71164 -0.30593 1539 ft 121 kts 127°
2026-04-18 22:32 43.70696 -0.29601 1542 ft 124 kts 125°
2026-04-18 22:33 43.70275 -0.28599 1532 ft 114 kts 120°
2026-04-18 22:33 43.69920 -0.27647 1456 ft 109 kts 121°
2026-04-18 22:33 43.69605 -0.26718 1369 ft 108 kts 104°
2026-04-18 22:33 43.69716 -0.25759 1438 ft 92 kts 58°
2026-04-18 22:34 43.70111 -0.25096 1479 ft 94 kts 44°
2026-04-18 22:34 43.70655 -0.24801 1555 ft 89 kts 331°
2026-04-18 22:34 43.70976 -0.25549 1502 ft 94 kts 293°
2026-04-18 22:34 43.71232 -0.26334 1480 ft 86 kts 294°
2026-04-18 22:35 43.71745 -0.26613 1432 ft 96 kts 15°
2026-04-18 22:35 43.72362 -0.26224 1357 ft 97 kts 23°
2026-04-18 22:35 43.72795 -0.25611 1333 ft 92 kts 89°
2026-04-18 22:35 43.72588 -0.24779 1273 ft 91 kts 117°
2026-04-18 22:36 43.72376 -0.23979 1318 ft 88 kts 108°
2026-04-18 22:36 43.72204 -0.23185 1363 ft 87 kts 111°
2026-04-18 22:36 43.71994 -0.22380 1448 ft 92 kts 115°
2026-04-18 22:36 43.71749 -0.21596 1431 ft 89 kts 120°
2026-04-18 22:37 43.71472 -0.20820 1364 ft 91 kts 122°
2026-04-18 22:37 43.71144 -0.20094 1373 ft 85 kts 138°
2026-04-18 22:37 43.70637 -0.19966 1331 ft 76 kts 216°
2026-04-18 22:37 43.70176 -0.20364 1171 ft 80 kts 213°
2026-04-18 22:38 43.69682 -0.20722 1041 ft 78 kts 223°
2026-04-18 22:38 43.69657 -0.21380 904 ft 73 kts 291°
2026-04-18 22:38 43.69859 -0.22021 784 ft 73 kts 290°
2026-04-18 22:38 43.70079 -0.22655 661 ft 70 kts 292°
2026-04-18 22:39 43.70294 -0.23259 614 ft 67 kts 295°
2026-04-18 22:39 43.70493 -0.23843 495 ft 65 kts 293°
2026-04-18 22:39 43.70683 -0.24392 320 ft 60 kts 293°
2026-04-18 22:39 43.70836 -0.24842 258 ft 41 kts 291°
2026-04-18 22:40 43.70990 -0.25277 289 ft 64 kts 292°
2026-04-18 22:40 43.71188 -0.25822 543 ft 63 kts 295°
2026-04-18 22:40 43.71412 -0.26389 757 ft 75 kts 297°
2026-04-18 22:40 43.71704 -0.27017 1009 ft 79 kts 320°
2026-04-18 22:41 43.72236 -0.26978 1251 ft 88 kts 23°
2026-04-18 22:41 43.72849 -0.26557 1277 ft 103 kts 26°
2026-04-18 22:41 43.73112 -0.25756 1306 ft 99 kts 107°
2026-04-18 22:41 43.72885 -0.24883 1318 ft 95 kts 108°
2026-04-18 22:42 43.72684 -0.23990 1353 ft 99 kts 112°
2026-04-18 22:42 43.72427 -0.23117 1378 ft 100 kts 118°
2026-04-18 22:42 43.72105 -0.22273 1369 ft 102 kts 121°
2026-04-18 22:42 43.71749 -0.21404 1326 ft 102 kts 127°
2026-04-18 22:43 43.71375 -0.20708 1327 ft 84 kts 134°
2026-04-18 22:43 43.70894 -0.20595 1218 ft 81 kts 213°
2026-04-18 22:43 43.70406 -0.21044 993 ft 85 kts 219°
2026-04-18 22:43 43.69941 -0.21486 871 ft 76 kts 232°
2026-04-18 22:44 43.69957 -0.22108 792 ft 68 kts 288°
2026-04-18 22:44 43.70143 -0.22719 676 ft 70 kts 292°
2026-04-18 22:44 43.70372 -0.23328 538 ft 69 kts 295°
2026-04-18 22:44 43.70580 -0.23900 384 ft 66 kts 295°
2026-04-18 22:45 43.70769 -0.24435 265 ft 53 kts 292°
2026-04-18 22:45 43.70897 -0.24800 257 ft 33 kts 297°
2026-04-18 22:45 43.70978 -0.25022 259 ft 20 kts 296°
2026-04-18 22:45 43.71040 -0.25198 260 ft 20 kts 292°
2026-04-18 22:46 43.71079 -0.25268 262 ft 4 kts 21°
2026-04-18 22:46 43.71095 -0.25211 262 ft 11 kts 114°
2026-04-18 22:46 43.71085 -0.25137 261 ft 5 kts 24°
2026-04-18 22:46 43.71118 -0.25109 262 ft 6 kts 96°
2026-04-18 22:47 43.71099 -0.25059 261 ft 5 kts 115°
2026-04-18 22:47 43.71098 -0.25050 261 ft 1 kts 79°
2026-04-18 22:47 43.71098 -0.25048 261 ft 0 kts 51°